TimeMDT,TemperatureF,Dew PointF,Humidity,Sea Level PressureIn,VisibilityMPH,Wind Direction,Wind SpeedMPH,Gust SpeedMPH,PrecipitationIn,Events,Conditions,WindDirDegrees,DateUTC
12:53 AM,37.9,27.0,65,30.35,10.0,Calm,Calm,-,N/A,,Clear,0,2013-10-26 06:53:00
1:53 AM,36.0,27.0,70,30.34,10.0,Calm,Calm,-,N/A,,Clear,0,2013-10-26 07:53:00
2:53 AM,35.1,27.0,72,30.34,10.0,West,3.5,-,N/A,,Clear,270,2013-10-26 08:53:00
3:53 AM,35.1,27.0,72,30.33,10.0,Calm,Calm,-,N/A,,Clear,0,2013-10-26 09:53:00
4:53 AM,33.1,25.0,72,30.34,10.0,Calm,Calm,-,N/A,,Clear,0,2013-10-26 10:53:00
5:53 AM,30.0,24.1,79,30.36,10.0,NNE,3.5,-,N/A,,Clear,30,2013-10-26 11:53:00
6:53 AM,30.9,25.0,79,30.37,10.0,Calm,Calm,-,N/A,,Clear,0,2013-10-26 12:53:00
7:53 AM,28.0,23.0,81,30.40,10.0,Calm,Calm,-,N/A,,Clear,0,2013-10-26 13:53:00
8:53 AM,30.9,25.0,79,30.41,10.0,Calm,Calm,-,N/A,,Clear,0,2013-10-26 14:53:00
9:53 AM,36.0,28.0,73,30.40,10.0,Calm,Calm,-,N/A,,Clear,0,2013-10-26 15:53:00
10:53 AM,41.0,28.9,62,30.39,10.0,Calm,Calm,-,N/A,,Clear,0,2013-10-26 16:53:00
11:53 AM,46.0,30.0,54,30.36,10.0,Calm,Calm,-,N/A,,Clear,0,2013-10-26 17:53:00
12:53 PM,53.1,28.9,40,30.32,10.0,Calm,Calm,-,N/A,,Clear,0,2013-10-26 18:53:00
1:53 PM,57.0,28.9,34,30.27,10.0,ENE,3.5,-,N/A,,Clear,60,2013-10-26 19:53:00
2:53 PM,63.0,24.1,23,30.22,10.0,Calm,Calm,-,N/A,,Clear,0,2013-10-26 20:53:00
3:53 PM,68.0,18.0,15,30.18,10.0,West,9.2,16.1,N/A,,Clear,280,2013-10-26 21:53:00
4:53 PM,66.9,19.0,16,30.17,10.0,WSW,12.7,-,N/A,,Clear,250,2013-10-26 22:53:00
5:53 PM,62.1,19.0,19,30.18,10.0,WSW,6.9,-,N/A,,Clear,240,2013-10-26 23:53:00
6:53 PM,55.9,19.9,25,30.18,10.0,WSW,8.1,-,N/A,,Clear,240,2013-10-27 00:53:00
7:53 PM,55.9,19.9,25,30.19,10.0,WSW,9.2,-,N/A,,Clear,240,2013-10-27 01:53:00
8:53 PM,54.0,19.9,26,30.17,10.0,West,8.1,-,N/A,,Clear,260,2013-10-27 02:53:00
9:53 PM,46.9,21.0,36,30.17,10.0,West,3.5,-,N/A,,Clear,280,2013-10-27 03:53:00
10:53 PM,51.1,21.9,32,30.13,10.0,SSW,5.8,-,N/A,,Clear,210,2013-10-27 04:53:00
11:53 PM,41.0,23.0,49,30.12,10.0,Calm,Calm,-,N/A,,Clear,0,2013-10-27 05:53:00